Weather Roundup
Issued by NWS Chicago, IL

Home | Current Version | Previous Version | Graphics & Text | Print | Product List | Glossary On
Versions: 1 2 3 4 5 6 7 8 9 10 11 12 13 14 15 16 17 18 19 20 21 22 23 24 25 26 27 28 29 30 31 32 33 34 35 36 37 38 39 40 41 42 43 44 45 46 47 48 49 50
000
NZUS59 KLOT 280412
HRRLOT

CHICAGO AREA WEATHER ROUNDUP
NATIONAL WEATHER SERVICE CHICAGO/ROMEOVILLE IL
1100 PM CDT MON APR 27 2015

NOTE: "FAIR" INDICATES FEW OR NO CLOUDS BELOW 12,000 FEET WITH NO
SIGNIFICANT WEATHER AND/OR OBSTRUCTIONS TO VISIBILITY.

* THESE STATIONS ARE NOT UNDER NWS QUALITY CONTROL. THEY ALSO MAY NOT
  REPORT WEATHER SUCH AS PRECIPITATION OR FOG.

ILZ005-006-012>014-019>023-280500-
NORTHEAST ILLINOIS

CITY           SKY/WX    TMP DP  RH WIND       PRES   REMARKS
OHARE          PTCLDY    42  33  70 NE6       30.12F
MIDWAY         CLEAR     45  33  63 E6        30.12F
AURORA         CLEAR     43  32  65 NE6       30.11F
LANSING*       CLEAR     40  33  75 CALM      30.12S
JOLIET*        CLEAR     44  34  68 E5        30.12S
WAUKEGAN       CLEAR     37  32  82 NW3       30.12F
DUPAGE AIRPORT CLEAR     40  32  73 N5        30.11F
WHEELING       CLEAR     40  33  76 CALM      30.14F
KANKAKEE*      CLEAR     38  34  84 NE5       30.12S
MORRIS*          N/A     42  35  78 CALM      30.09S
LEWIS AIRPORT* CLEAR     43  33  66 E7        30.11S
NORTHERLY IS     N/A     41  34  76 MISG        N/A
$$

WIZ051-052-058>065-066-070>072-280500-
SOUTHEAST WISCONSIN

CITY           SKY/WX    TMP DP  RH WIND       PRES   REMARKS
MILWAUKEE      CLEAR     43  31  62 N5        30.14S
KENOSHA*       CLEAR     41  32  70 N3        30.13S
RACINE*        CLEAR     40  32  73 NW5       30.14F
BURLINGTON     CLEAR     37  32  81 CALM      30.13S
WAUKESHA       CLEAR     39  32  75 NE3       30.14F
WEST BEND      CLEAR     37  32  81 CALM      30.14S
$$

INZ001>003-010>013-019-020-280500-
NORTHWEST INDIANA

CITY           SKY/WX    TMP DP  RH WIND       PRES   REMARKS
GARY*          CLEAR     39  32  77 CALM      30.12F
MICHIGAN CITY* NOT AVBL
RENSSELAER*    NOT AVBL
VALPARAISO     CLEAR     39  33  79 N3        30.11F
$$

LMZ740>746-280500-
SOUTHERN LAKE MICHIGAN

STATION/POSITION TIME  SKY/WX   TEMP WIND        PRES    VSBY
                                AIR  DIR/SP/G
                 (UTC)          (F)  (DEG/KT/KT) (MB)    (MI)
HARRISON CRIB    0300            41  350/  5/  6   N/A
BURNHAM HARBOR   0400            41   10/  6/  7   N/A
CALUMET HARBOR   0300            42   10/  5/  7   N/A
BURNS HARBOR     0300            42  320/  5/  8 1020.7R
MICHIGAN CITY    0300            43  240/  8/  9   N/A
$$

ABBREVIATIONS USED IN REMARKS
   TC - TEMPERATURE IN CELSIUS
  WCI - WIND CHILL INDEX
   HX - HEAT INDEX
  VSB - VISIBILITY
$$


USA.gov is the U.S. government's official web portal to all federal, state and local government web resources and services.